Weather History for Havre, MT

Change the Weather History Date:

Saturday, June 7, 2014

  Actual Average Record
Temperature  
Mean Temperature 54 °F 60 °F  
Max Temperature 71 °F 73 °F 96 °F (1977)
Min Temperature 36 °F 47 °F 32 °F (1950)
Degree Days  
Heating Degree Days 11 6  
Month to date heating degree days 51 45  
Since 1 June heating degree days 51 45  
Since 1 July heating degree days 8431 8133  
Cooling Degree Days 0 1  
Month to date cooling degree days 0 7  
Year to date cooling degree days 7 18  
Since 1 June cooling degree days 0 7  
Growing Degree Days 5 (Base 50)    
Moisture  
Dew Point 36 °F    
Average Humidity 54    
Maximum Humidity 85    
Minimum Humidity 23    
Precipitation  
Precipitation T in 0.07 in 2.50 in (1924)
Month to date precipitation 0.15 0.52  
Year to date precipitation 3.84 4.25  
Snow  
Snow 0.00 in 0.10 in 1.50 in (1950)
Month to date snowfall 0.0 0.3  
Since 1 June snowfall 0.0 0.3  
Since 1 July snowfall 44.4 39.3  
Snow Depth 0.00 in    
Sea Level Pressure  
Sea Level Pressure 30.07 in    
Wind  
Wind Speed 6 mph (ENE)    
Max Wind Speed 26 mph    
Max Gust Speed 38 mph    
Visibility 10 miles    
Events      
T = Trace of Precipitation, MM = Missing Value Source: NWS Daily Summary

Daily Weather History Graph

Daily Weather History Graph

Search for Another Location

Airport:

Trip Planner

Search our weather history database for the weather conditions in past years. The results will help you decide how hot, cold, wet, or windy it might be!

Date:

Astronomy

Jun. 07, 2014 Rise Set
Actual Time 5:18 AM MDT 9:18 PM MDT
Civil Twilight 4:36 AM MDT 9:59 PM MDT
Nautical Twilight 3:39 AM MDT 10:57 PM MDT
Astronomical Twilight 2:02 AM MDT 12:36 AM MDT
Moon 3:13 PM MDT (6/7) 2:09 AM MDT (6/7)
Length of Visible Light 17h 22m
Length of Day
15h 59m
Waxing Gibbous, 68% of the Moon is Illuminated
Jun 7
Waxing Gibbous
Jun 12
Full
Jun 19
Last Quarter
Jun 27
New
Jul 5
First Quarter

Hourly Weather History & Observations

Time (MDT) Temp. Windchill Dew Point Humidity Pressure Visibility Wind Dir Wind Speed Gust Speed Precip Events Conditions
12:53 AM 45.0 °F - 37.0 °F 74% 30.14 in 10.0 mi Calm Calm - N/A   Clear
1:53 AM 45.0 °F 43.5 °F 36.0 °F 71% 30.14 in 10.0 mi SW 3.5 mph - N/A   Clear
2:53 AM 44.1 °F - 36.0 °F 73% 30.13 in 10.0 mi Calm Calm - N/A   Clear
3:53 AM 39.9 °F 37.8 °F 35.1 °F 83% 30.14 in 10.0 mi West 3.5 mph - N/A   Clear
4:53 AM 42.1 °F - 36.0 °F 79% 30.12 in 10.0 mi Calm Calm - N/A   Clear
6:53 AM 45.0 °F 43.5 °F 39.0 °F 80% 30.10 in 10.0 mi East 3.5 mph - N/A   Clear
7:53 AM 51.8 °F - 39.2 °F 62% 30.09 in 10.0 mi ENE 6.9 mph - N/A   Clear
8:53 AM 57.2 °F - 39.2 °F 51% 30.07 in 10.0 mi ENE 9.2 mph - N/A   Scattered Clouds
9:53 AM 61.0 °F - 36.0 °F 39% 30.08 in 10.0 mi ENE 5.8 mph - N/A   Mostly Cloudy
10:53 AM 64.9 °F - 34.0 °F 32% 30.05 in 10.0 mi East 11.5 mph 18.4 mph N/A   Partly Cloudy
11:53 AM 62.1 °F - 32.0 °F 32% 30.05 in 10.0 mi ENE 4.6 mph - 0.00 in   Mostly Cloudy
12:53 PM 66.0 °F - 32.0 °F 28% 30.03 in 10.0 mi ENE 9.2 mph - N/A   Clear
1:53 PM 69.1 °F - 30.0 °F 23% 30.01 in 10.0 mi East 6.9 mph - N/A   Clear
2:53 PM 66.9 °F - 30.0 °F 25% 30.02 in 10.0 mi WNW 11.5 mph 17.3 mph N/A   Mostly Cloudy
3:53 PM 64.9 °F - 39.9 °F 40% 30.03 in 10.0 mi East 11.5 mph - 0.00 in   Scattered Clouds
4:53 PM 66.9 °F - 37.9 °F 34% 30.01 in 10.0 mi East 8.1 mph - N/A   Clear
5:53 PM 68.0 °F - 37.0 °F 32% 30.01 in 10.0 mi East 6.9 mph - N/A   Clear
6:53 PM 68.0 °F - 36.0 °F 31% 30.01 in 10.0 mi NNE 6.9 mph - N/A   Clear
7:53 PM 68.0 °F - 37.0 °F 32% 30.01 in 10.0 mi NNW 4.6 mph - N/A   Mostly Cloudy
8:53 PM 62.1 °F - 30.9 °F 31% 30.04 in 10.0 mi North 8.1 mph - N/A   Clear
9:53 PM 55.9 °F - 36.0 °F 47% 30.06 in 10.0 mi NNE 11.5 mph - N/A   Clear
10:53 PM 53.1 °F - 36.0 °F 52% 30.08 in 10.0 mi NE 6.9 mph - N/A   Clear
11:53 PM 48.0 °F - 37.9 °F 68% 30.09 in 10.0 mi ESE 8.1 mph - N/A   Clear